Biloxi, MS

8:27 AM CST on December 17, 2017 (GMT -0600)
Keesler Air Force Base

Weather History for KBIX - February, 2013

Change the Weather History Date:

Friday, February 22, 2013

  Actual Average Record
Temperature  
Mean Temperature 64 °F -  
Max Temperature 69 °F 66 °F 78 °F (2001)
Min Temperature 58 °F 48 °F 19 °F (1978)
Degree Days  
Heating Degree Days 2    
Growing Degree Days 14 (Base 50)    
Moisture  
Dew Point 61 °F    
Average Humidity 90    
Maximum Humidity 100    
Minimum Humidity 52    
Precipitation  
Precipitation 0.35 in - - ()
Sea Level Pressure  
Sea Level Pressure 29.90 in    
Wind  
Wind Speed 7 mph (North)    
Max Wind Speed 16 mph    
Max Gust Speed 18 mph    
Visibility 8 miles    
Events Rain , Thunderstorm    
Averages and records for this station are not official NWS values.
T = Trace of Precipitation, MM = Missing Value Source: NWS Daily Summary

Daily Weather History Graph

Daily Weather History Graph

Search for Another Location

Airport or City:

Trip Planner

Search our weather history database for the weather conditions in past years. The results will help you decide how hot, cold, wet, or windy it might be!

Date:

Astronomy

Feb. 22, 2013 Rise Set
Actual Time 6:29 AM CST 5:49 PM CST
Civil Twilight 6:04 AM CST 6:13 PM CST
Nautical Twilight 5:36 AM CST 6:41 PM CST
Astronomical Twilight 5:08 AM CST 7:09 PM CST
Moon 3:08 PM CST (2/22) 4:05 AM CST (2/22)
Length of Visible Light 12h 09m
Length of Day
11h 20m
Waxing Gibbous, 90% of the Moon is Illuminated
Feb 22
Waxing Gibbous
Feb 25
Full
Mar 4
Last Quarter
Mar 11
New
Mar 19
First Quarter

Hourly Weather History & Observations

Time (CST) Temp. Dew Point Humidity Pressure Visibility Wind Dir Wind Speed Gust Speed Precip Events Conditions
12:18 AM 64.4 °F 62.6 °F 94% 29.88 in 5.0 mi South 6.9 mph - N/A   Mostly Cloudy
12:23 AM 64.4 °F 62.6 °F 94% 29.87 in 6.0 mi South 9.2 mph - N/A   Mostly Cloudy
12:28 AM 64.4 °F 62.6 °F 94% 29.87 in 7.0 mi South 8.1 mph - N/A   Mostly Cloudy
12:32 AM 64.4 °F 62.6 °F 94% 29.88 in 7.0 mi South 8.1 mph - N/A Thunderstorm Thunderstorm
12:47 AM 64.4 °F 62.6 °F 94% 29.88 in 7.0 mi South 4.6 mph - N/A Thunderstorm Overcast
12:49 AM 64.4 °F 62.6 °F 94% 29.88 in 7.0 mi South 4.6 mph - N/A Thunderstorm Thunderstorm
12:54 AM 64.4 °F 62.6 °F 94% 29.88 in 7.0 mi SSW 3.5 mph - N/A Thunderstorm Thunderstorm
12:58 AM 63.7 °F 62.6 °F 96% 29.89 in 7.0 mi South 3.5 mph - N/A Thunderstorm Thunderstorm
1:03 AM 64.4 °F 62.6 °F 94% 29.87 in 7.0 mi SE 3.5 mph - N/A Thunderstorm Thunderstorm
1:18 AM 64.4 °F 62.6 °F 94% 29.87 in 8.0 mi South 12.7 mph 17.3 mph N/A Thunderstorm Overcast
1:25 AM 64.4 °F 64.4 °F 100% 29.89 in 7.0 mi West 9.2 mph 18.4 mph N/A Thunderstorm Overcast
1:26 AM 64.4 °F 64.4 °F 100% 29.89 in 6.0 mi West 6.9 mph 18.4 mph N/A Thunderstorm Overcast
1:28 AM 66.2 °F 64.4 °F 94% 29.88 in 5.0 mi WSW 9.2 mph 18.4 mph N/A Rain , Thunderstorm Heavy Rain
1:36 AM 66.2 °F 66.2 °F 100% 29.87 in 6.0 mi Variable 4.6 mph - N/A Rain , Thunderstorm Light Rain
1:39 AM 66.2 °F 66.2 °F 100% 29.87 in 9.0 mi West 3.5 mph - N/A Rain , Thunderstorm Light Rain
1:42 AM 66.2 °F 66.2 °F 100% 29.88 in 10.0 mi West 6.9 mph - N/A Thunderstorm Overcast
1:45 AM 66.2 °F 66.2 °F 100% 29.88 in 6.0 mi Variable 5.8 mph - N/A Rain , Thunderstorm Light Rain
1:46 AM 66.2 °F 66.2 °F 100% 29.88 in 6.0 mi SW 5.8 mph - N/A Rain , Thunderstorm Light Rain
1:53 AM 66.2 °F 66.2 °F 100% 29.88 in 4.0 mi WSW 8.1 mph - N/A Rain Light Rain
1:58 AM 66.9 °F 66.0 °F 97% 29.89 in 4.0 mi WSW 8.1 mph - 0.16 in Rain Rain
2:03 AM 66.2 °F 66.2 °F 100% 29.88 in 4.0 mi SW 6.9 mph - N/A Rain Light Rain
2:08 AM 66.2 °F 66.2 °F 100% 29.88 in 5.0 mi SW 10.4 mph - N/A Rain Light Rain
2:13 AM 66.2 °F 66.2 °F 100% 29.88 in 3.0 mi SW 8.1 mph - N/A Rain Light Rain
2:18 AM 66.2 °F 64.4 °F 94% 29.88 in 4.0 mi WSW 6.9 mph - N/A Rain Light Rain
2:23 AM 66.2 °F 64.4 °F 94% 29.87 in 6.0 mi WSW 9.2 mph - N/A Rain Light Rain
2:24 AM 66.2 °F 64.4 °F 94% 29.87 in 5.0 mi WSW 8.1 mph - N/A   Overcast
2:29 AM 66.2 °F 64.4 °F 94% 29.87 in 4.0 mi WSW 8.1 mph - N/A   Overcast
2:34 AM 66.2 °F 64.4 °F 94% 29.87 in 6.0 mi WSW 8.1 mph - N/A   Overcast
2:39 AM 66.2 °F 66.2 °F 100% 29.87 in 8.0 mi WSW 6.9 mph - N/A   Overcast
2:49 AM 66.2 °F 66.2 °F 100% 29.87 in 4.0 mi WSW 6.9 mph - N/A   Overcast
2:54 AM 66.2 °F 66.2 °F 100% 29.87 in 2.5 mi WSW 6.9 mph - N/A   Overcast
2:58 AM 66.2 °F 66.2 °F 100% 29.88 in 2.0 mi WSW 6.9 mph - 0.08 in   Overcast
2:59 AM 66.2 °F 64.4 °F 94% 29.87 in 2.0 mi WSW 5.8 mph - N/A Rain Light Rain
3:04 AM 66.2 °F 64.4 °F 94% 29.87 in 1.8 mi WSW 8.1 mph - N/A Rain Light Rain
3:06 AM 66.2 °F 64.4 °F 94% 29.87 in 1.5 mi WSW 8.1 mph - N/A   Overcast
3:11 AM 66.2 °F 64.4 °F 94% 29.88 in 1.0 mi WSW 5.8 mph - N/A   Mist
3:16 AM 66.2 °F 64.4 °F 94% 29.88 in 1.0 mi West 8.1 mph - N/A   Mist
3:21 AM 66.2 °F 64.4 °F 94% 29.87 in 0.8 mi WSW 5.8 mph - N/A Rain Light Rain
3:30 AM 66.2 °F 66.2 °F 100% 29.87 in 0.8 mi WSW 5.8 mph - N/A   Mist
3:40 AM 66.2 °F 66.2 °F 100% 29.88 in 1.0 mi West 4.6 mph - N/A Rain Light Rain
3:45 AM 66.2 °F 66.2 °F 100% 29.87 in 1.5 mi Variable 5.8 mph - N/A Rain Light Rain
3:50 AM 66.2 °F 66.2 °F 100% 29.87 in 3.0 mi WSW 6.9 mph - N/A Rain Light Rain
3:55 AM 68.0 °F 66.2 °F 94% 29.87 in 8.0 mi WSW 6.9 mph - N/A Rain Light Rain
3:58 AM 67.3 °F 66.6 °F 98% 29.88 in 8.0 mi WSW 6.9 mph - 0.02 in Rain Light Rain
4:03 AM 68.0 °F 68.0 °F 100% 29.87 in 9.0 mi WSW 6.9 mph - N/A Rain Light Rain
4:13 AM 68.0 °F 66.2 °F 94% 29.87 in 10.0 mi West 5.8 mph - N/A Rain Light Rain
4:14 AM 68.0 °F 66.2 °F 94% 29.87 in 10.0 mi West 5.8 mph - N/A   Overcast
4:54 AM 68.0 °F 66.2 °F 94% 29.89 in 9.0 mi North 12.7 mph - N/A   Overcast
4:58 AM 67.1 °F 66.6 °F 98% 29.90 in 10.0 mi North 12.7 mph - 0.01 in   Overcast
5:00 AM 66.2 °F 66.2 °F 100% 29.89 in 10.0 mi North 10.4 mph - N/A Rain Light Rain
5:05 AM 66.2 °F 64.4 °F 94% 29.90 in 8.0 mi NNE 6.9 mph - N/A Rain Rain
5:15 AM 64.4 °F 64.4 °F 100% 29.90 in 10.0 mi NE 9.2 mph - N/A Rain Light Rain
5:20 AM 64.4 °F 64.4 °F 100% 29.90 in 10.0 mi NNE 6.9 mph - N/A Rain Light Rain
5:25 AM 64.4 °F 64.4 °F 100% 29.90 in 10.0 mi NE 8.1 mph - N/A Rain Light Rain
5:35 AM 64.4 °F 64.4 °F 100% 29.90 in 8.0 mi NNE 8.1 mph - N/A Rain Light Rain
5:48 AM 64.4 °F 62.6 °F 94% 29.90 in 10.0 mi NE 5.8 mph - N/A   Overcast
5:58 AM 64.4 °F 63.3 °F 96% 29.91 in 10.0 mi NNE 2.3 mph - 0.03 in   Overcast
6:08 AM 64.4 °F 62.6 °F 94% 29.92 in 10.0 mi NE 8.1 mph - N/A   Overcast
6:12 AM 64.4 °F 62.6 °F 94% 29.92 in 10.0 mi NNE 5.8 mph - N/A Rain Light Rain
6:22 AM 64.4 °F 62.6 °F 94% 29.93 in 10.0 mi NNE 5.8 mph - N/A   Overcast
6:28 AM 64.4 °F 62.6 °F 94% 29.93 in 10.0 mi NNE 5.8 mph - N/A Rain Light Rain
6:37 AM 64.4 °F 62.6 °F 94% 29.94 in 10.0 mi NNE 4.6 mph - N/A   Mostly Cloudy
6:50 AM 64.4 °F 62.6 °F 94% 29.94 in 9.0 mi NNE 6.9 mph - N/A Rain Light Rain
6:58 AM 64.2 °F 63.1 °F 96% 29.95 in 4.0 mi NE 6.9 mph - 0.02 in Rain Light Rain
7:06 AM 64.4 °F 62.6 °F 94% 29.95 in 10.0 mi NNE 6.9 mph - N/A   Overcast
7:58 AM 64.0 °F 63.0 °F 96% 29.97 in 10.0 mi NE 8.1 mph - 0.00 in   Overcast
8:48 AM 62.6 °F 57.2 °F 82% 29.97 in 9.0 mi NE 11.5 mph - N/A Rain Light Rain
8:58 AM 63.0 °F 57.7 °F 83% 29.97 in 7.0 mi NE 12.7 mph - 0.02 in Rain Light Rain
9:04 AM 62.6 °F 57.2 °F 82% 29.96 in 10.0 mi NE 16.1 mph - N/A   Overcast
9:58 AM 64.0 °F 57.4 °F 79% 29.98 in 10.0 mi NE 11.5 mph - 0.00 in   Overcast
10:23 AM 66.2 °F 57.2 °F 73% 29.97 in 10.0 mi NE 11.5 mph - N/A   Overcast
10:58 AM 65.1 °F 52.3 °F 63% 29.98 in 10.0 mi NE 11.5 mph - N/A   Overcast
11:58 AM 66.9 °F 52.9 °F 61% 29.96 in 10.0 mi NE 12.7 mph - N/A   Overcast
12:58 PM 68.0 °F 50.0 °F 52% 29.94 in 10.0 mi NE 10.4 mph - N/A   Overcast
1:58 PM 68.7 °F 51.3 °F 54% 29.91 in 10.0 mi ENE 10.4 mph - N/A   Overcast
2:28 PM 69.8 °F 53.6 °F 56% 29.90 in 10.0 mi NE 6.9 mph - N/A   Overcast
2:32 PM 68.0 °F 53.6 °F 60% 29.90 in 10.0 mi ENE 6.9 mph - N/A Rain Light Rain
2:42 PM 66.2 °F 55.4 °F 68% 29.90 in 10.0 mi ENE 6.9 mph - N/A Rain Light Rain
2:58 PM 65.3 °F 56.7 °F 74% 29.90 in 10.0 mi ENE 5.8 mph - 0.00 in Rain Light Rain
3:04 PM 64.4 °F 57.2 °F 77% 29.89 in 10.0 mi NNE 4.6 mph - N/A Rain , Thunderstorm Light Thunderstorms and Rain
3:09 PM 64.4 °F 57.2 °F 77% 29.89 in 10.0 mi NNE 5.8 mph - N/A Rain , Thunderstorm Light Thunderstorms and Rain
3:22 PM 64.4 °F 57.2 °F 77% 29.90 in 10.0 mi North 3.5 mph - N/A Thunderstorm Thunderstorm
3:25 PM 64.4 °F 57.2 °F 77% 29.89 in 10.0 mi Variable 2.3 mph - N/A Thunderstorm Overcast
3:27 PM 64.4 °F 57.2 °F 77% 29.89 in 10.0 mi NE 3.5 mph - N/A Rain , Thunderstorm Light Rain
3:38 PM 64.4 °F 57.2 °F 77% 29.89 in 10.0 mi North 5.8 mph - N/A   Overcast
3:43 PM 64.4 °F 57.2 °F 77% 29.89 in 10.0 mi WNW 6.9 mph - N/A   Overcast
3:58 PM 63.5 °F 57.4 °F 80% 29.91 in 10.0 mi NNW 8.1 mph - 0.01 in   Overcast
4:13 PM 62.6 °F 57.2 °F 82% 29.89 in 10.0 mi North 5.8 mph - N/A   Overcast
4:23 PM 62.6 °F 57.2 °F 82% 29.90 in 10.0 mi North 6.9 mph - N/A   Overcast
4:54 PM 62.6 °F 57.2 °F 82% 29.91 in 10.0 mi North 4.6 mph - N/A   Overcast
5:37 PM 60.8 °F 57.2 °F 88% 29.91 in 10.0 mi NNE 8.1 mph - N/A   Overcast
5:52 PM 60.8 °F 57.2 °F 88% 29.90 in 10.0 mi NNE 8.1 mph - N/A   Overcast
5:54 PM 60.8 °F 57.2 °F 88% 29.90 in 10.0 mi NNE 6.9 mph - N/A   Overcast
6:14 PM 60.8 °F 57.2 °F 88% 29.90 in 10.0 mi NE 6.9 mph - N/A   Overcast
6:58 PM 61.2 °F 56.5 °F 85% 29.91 in 10.0 mi NE 5.8 mph - N/A   Overcast
7:38 PM 60.8 °F 57.2 °F 88% 29.90 in 10.0 mi NNE 5.8 mph - N/A   Overcast
7:58 PM 61.0 °F 56.3 °F 85% 29.91 in 10.0 mi NE 6.9 mph - N/A   Overcast
8:58 PM 60.8 °F 57.2 °F 88% 29.92 in 10.0 mi NNE 5.8 mph - N/A   Overcast
9:33 PM 60.8 °F 57.2 °F 88% 29.92 in 10.0 mi North 5.8 mph - N/A   Overcast
9:43 PM 59.0 °F 57.2 °F 94% 29.92 in 8.0 mi NNE 6.9 mph - N/A   Overcast
9:48 PM 59.0 °F 57.2 °F 94% 29.92 in 7.0 mi NNE 5.8 mph - N/A   Overcast
9:58 PM 59.5 °F 57.6 °F 93% 29.93 in 7.0 mi NNE 6.9 mph - N/A   Overcast
10:03 PM 59.0 °F 57.2 °F 94% 29.91 in 7.0 mi NNE 8.1 mph - N/A   Overcast
10:08 PM 59.0 °F 57.2 °F 94% 29.92 in 8.0 mi NNE 8.1 mph - N/A   Overcast
10:18 PM 59.0 °F 57.2 °F 94% 29.92 in 10.0 mi NNE 6.9 mph - N/A   Overcast
10:28 PM 59.0 °F 57.2 °F 94% 29.91 in 10.0 mi NE 8.1 mph - N/A   Overcast
10:58 PM 58.6 °F 57.6 °F 96% 29.91 in 10.0 mi NE 6.9 mph - N/A   Overcast
11:43 PM 59.0 °F 57.2 °F 94% 29.90 in 9.0 mi North 6.9 mph - N/A   Overcast
11:58 PM 58.3 °F 57.2 °F 96% 29.90 in 9.0 mi NNE 6.9 mph - N/A   Overcast